User: anonymous   Login
Location: Norwich
(52.6280°N, 1.3030°E)
Time: 03:25:48
(UTC+01:00)
Language:

Meteor 1-22 Rocket - Orbit

View from above orbital plane
View from above orbital plane
View from above satellite
View from above satellite

Ground track
Ground track

The orbit data is extracted from the following two-line orbital elements,

1 08294U 75087B   15149.09436358 -.00000168  00000-0 -99414-4 0  9996
2 08294 081.2100 033.7155 0107029 358.6766 001.4103 14.08501778 39250
Epoch (UTC): 29 May 2015 02:15:53
Eccentricity: 0.0107029
inclination: 81.2100°
perigee height: 787 km
apogee height: 942 km
right ascension of ascending node: 33.7155°
argument of perigee: 358.6766°
revolutions per day: 14.08501778
mean anomaly at epoch: 1.4103°
orbit number at epoch: 3925

The dashed part of the orbit path shows where the satellite is in the earth's shadow,  

DLR